Flag for U.S.A. Weather past 2 weeks in Brownsville, Texas, U.S.A.

Now
91 °F

Passing clouds.


Feels Like: 97 °F
Forecast: 73 / 89 °F
Wind: 13 mph from East

Location: Brownsville / South Padre Island International Airport

Current Time: Aug 28, 2015 at 3:02:20 PM

Latest Report: Aug 28, 2015 at 1:53 PM


Visibility: 10 mi

Pressure: 29.97 "Hg

Humidity: 50%

Dew point: 70 °F

Location of BrownsvilleLocation

Historic Weather in Brownsville — Graph

°F

Brownsville temperature yesterday

Maximum temperature yesterday: 91 °F (at 1:53 PM)
Minimum temperature yesterday: 74 °F (at 4:53 AM)
Average temperature yesterday: 82 °F

Past Weeks' High & Low Weather Summary

 TemperatureHumidityPressure
High97 °F (Aug 14, 2:53 PM)100% (Aug 22, 7:53 AM)30.09 "Hg (Aug 22, 7:53 AM)
Low72 °F (Aug 28, 6:53 AM)39% (Aug 14, 2:53 PM)29.70 "Hg (Aug 19, 6:53 PM)
Average83 °F77%29.93 "Hg
* Reported Aug 13 1:53 PM — Aug 28 1:53 PM, Brownsville, Weather by CustomWeather, © 2015

Note: Actual official high and low records may vary slightly from our data, if they occured in-between our weather recording intervals... More about our weather records

Advertising

Brownsville weather history for previous 24 hours

 ConditionsComfort  
Time TempWeatherWind HumidityBarometerVisibility
1:53 PM
Fri, Aug 28
91 °FPassing clouds.13 mph50%29.97 "Hg10 mi
12:53 PM89 °FScattered clouds.7 mph52%29.97 "Hg10 mi
11:53 AM89 °FPassing clouds.3 mph52%29.99 "Hg10 mi
10:53 AM85 °FBroken clouds.6 mph59%29.99 "Hg10 mi
9:53 AM85 °FSunny.5 mph61%29.98 "Hg10 mi
8:53 AM81 °FSunny.5 mph72%29.98 "Hg10 mi
7:53 AM74 °FClear.3 mph88%29.96 "Hg10 mi
6:53 AM72 °FClear.No wind91%29.95 "Hg10 mi
5:53 AM73 °FClear.3 mph90%29.95 "Hg10 mi
4:53 AM75 °FClear.3 mph85%29.95 "Hg10 mi
3:53 AM75 °FOvercast.5 mph85%29.96 "Hg10 mi
2:53 AM75 °FPartly cloudy.No wind85%29.96 "Hg10 mi
1:53 AM76 °FPassing clouds.No wind80%29.98 "Hg10 mi
12:53 AM75 °FPassing clouds.3 mph82%29.99 "Hg10 mi
11:53 PM
Thu, Aug 27
75 °FClear.No wind82%30.00 "Hg10 mi
10:53 PM78 °FClear.3 mph74%30.01 "Hg10 mi
9:53 PM79 °FClear.3 mph72%30.00 "Hg10 mi
8:53 PM80 °FPartly sunny.5 mph69%29.98 "Hg10 mi
7:53 PM83 °FPartly sunny.12 mph63%29.98 "Hg10 mi
6:53 PM84 °FSunny.13 mph59%29.96 "Hg10 mi
5:53 PM87 °FSunny.10 mph46%29.97 "Hg10 mi
4:53 PM90 °FSunny.14 mph39%29.97 "Hg10 mi
3:53 PM90 °FSunny.8 mph41%29.98 "Hg10 mi
Weather by CustomWeather, © 2015

See weather overviewHow to use our weather pages